Regional Weather Roundup
Issued by NWS Newport/Morehead, NC

Home | Current Version | Previous Version | Text Only | Print | Product List | Glossary On
Versions: 1 2 3 4 5 6 7 8 9 10 11 12 13 14 15 16 17 18 19 20 21 22 23 24 25 26 27 28 29 30 31 32 33 34 35 36 37 38 39 40 41 42 43 44 45 46 47 48 49 50
408
ASUS42 KMHX 111025
RWRMHX
WEATHER ROUNDUP FOR EASTERN NORTH CAROLINA
NATIONAL WEATHER SERVICE NEWPORT/MOREHEAD CITY NC
500 AM EST SUN DEC 11 2016

NOTE: "FAIR" INDICATES FEW OR NO CLOUDS BELOW 12,000 FEET
WITH NO SIGNIFICANT WEATHER AND/OR OBSTRUCTIONS TO VISIBILITY

NCZ015>017-031-032-045>047-102-103-111100-
NORTH COAST

CITY           SKY/WX    TMP DP  RH WIND       PRES   REMARKS
EDENTON        CLEAR     27  22  82 CALM      30.53S
ELIZABETH CITY CLOUDY    25  19  78 NW5       30.53S
KITTY HAWK     SUNNY     35  26  69 CALM      30.51R
MANTEO         CLEAR     35  21  57 N5        30.53R

$$

NCZ045>047-081-094-103-104-111100-
CENTRAL COAST

CITY           SKY/WX    TMP DP  RH WIND       PRES   REMARKS
FRISCO         CLEAR     38  25  59 VRB3      30.50F

$$

NCZ095-097-098-100-101-111100-
SOUTHERN COAST

CITY           SKY/WX    TMP DP  RH WIND       PRES   REMARKS
BEAUFORT       CLEAR     32  24  72 NE5       30.52R
CEDAR ISLAND   NOT AVBL
JACKSONVILLE   CLEAR     25  22  88 CALM      30.52R
PINEY ISLAND   SUNNY    N/A N/A N/A N7        30.51R
WILMINGTON     CLEAR     23  20  88 NE8       30.51S


$$

NCZ011>013-027>030-043-044-078>080-089-090>093-098-111100-
COASTAL PLAIN

CITY           SKY/WX    TMP DP  RH WIND       PRES   REMARKS
AHOSKIE          N/A     23  20  87 CALM      30.51F
CLINTON        CLEAR     25  23  93 CALM      30.51F
ELIZABETHTOWN  CLEAR     24  22  93 CALM      30.50R
GOLDSBORO      CLEAR     26  22  84 E3        30.49S
GREENVILLE     CLEAR     23  21  93 CALM      30.50S
HAVELOCK       CLEAR     23  21  92 SW7       30.54R
KENANSVILLE    CLEAR     19  18  93 CALM      30.52S
KINSTON        CLEAR     22  19  89 CALM      30.53R
NEW BERN       PTCLDY    24  23  96 S3        30.54R
RICHLANDS      CLEAR     20  18  92 NE3       30.52S
ROCKY MOUNT    CLOUDY    24  22  91 CALM      30.49F
WASHINGTON     CLOUDY    25  19  78 CALM      30.52S
WHITEVILLE     CLEAR     26  24  93 CALM      30.49S

$$

AMZ130-135-150-152-154-156-158-170-250-252-270-ANZ085-086-088-633-658-670-111100-
MARINE OBSERVATIONS

STATION/POSITION TIME  TEMP    WIND        PRES    WAVE   SWELL
                       AIR SEA DIR/SP/G            HT/PER HT/PER
                 (UTC) (F)     (DEG/KT/KT) (MB)    (FT/S) (FT/S)
CHESAPEAKE LIGHT NOT AVBL
64 E VA BEACH    0950   41 58  350/  8/ 12 1033.0    2/ 5   2/ 5
DUCK             1000   37 51  310/  9/ 11 1033.0
2 E DUCK         NOT AVBL
OREGON INLET     1000   36 48  320/  5/  7 1033.5
13E OREGON INLT  NOT AVBL
HATTERAS CG      1000   41 51   10/  9/ 11 1032.8
DIAMOND BUOY     0950   47 75   20/ 10/ 14 1032.2    4/ 9   3/ 9
CAPE LOOKOUT     1000   40     360/ 11/ 14 1032.5
BEAUFORT LAB     1000   35 49   30/  5/  7 1032.2
30 SE NEW RVR IN 1008   46 68   50/  6/ 10 1032.4
30 SE NEW RVR IN 1013      68                N/A     2/ 3
27 SE WRIGHTSVLE 1008   48 68  100/ 10/ 16 1031.7
5 SE WRIGHTSVLE  0908   42 60   50/ 12/ 19 1032.0
225 S CAPE HAT   0950   61 73   70/  6/ 10 1029.4    4/ 8   3/ 8
41 SE CHARLESTON 0950   57 76  100/ 10/ 14 1029.5    2/ 8   2/ 8

$$




USA.gov is the U.S. government's official web portal to all federal, state and local government web resources and services.